Time,TemperatureF,DewpointF,PressureIn,WindDirection,WindDirectionDegrees,WindSpeedMPH,WindSpeedGustMPH,Humidity,HourlyPrecipIn,Conditions,Clouds,dailyrainin,SoftwareType,DateUTC
2013-04-17 00:13:00,61.1,55.0,30.23,South,174,0.0,2.0,79,0.00,,,0.00,weatherlink.com 1.10,2013-04-17 04:13:00,
2013-04-17 00:28:00,60.6,54.0,30.23,South,174,0.0,1.0,80,0.00,,,0.00,weatherlink.com 1.10,2013-04-17 04:28:00,
2013-04-17 00:43:00,60.3,54.0,30.22,South,173,0.0,0.0,81,0.00,,,0.00,weatherlink.com 1.10,2013-04-17 04:43:00,
2013-04-17 00:58:00,60.1,54.0,30.22,South,174,0.0,0.0,81,0.00,,,0.00,weatherlink.com 1.10,2013-04-17 04:58:00,
2013-04-17 01:13:00,60.1,55.0,30.22,South,175,0.0,1.0,82,0.00,,,0.00,weatherlink.com 1.10,2013-04-17 05:13:00,
2013-04-17 01:28:00,60.4,55.0,30.22,South,174,0.0,3.0,81,0.00,,,0.00,weatherlink.com 1.10,2013-04-17 05:28:00,
2013-04-17 01:43:00,61.0,55.0,30.21,South,174,0.0,0.0,80,0.00,,,0.00,weatherlink.com 1.10,2013-04-17 05:43:00,
2013-04-17 01:58:00,60.1,54.0,30.21,South,173,0.0,0.0,81,0.00,,,0.00,weatherlink.com 1.10,2013-04-17 05:58:00,
2013-04-17 02:13:00,59.9,54.0,30.21,South,174,0.0,1.0,82,0.00,,,0.00,weatherlink.com 1.10,2013-04-17 06:13:00,
2013-04-17 02:28:00,60.1,55.0,30.21,South,173,0.0,0.0,82,0.00,,,0.00,weatherlink.com 1.10,2013-04-17 06:28:00,
2013-04-17 02:43:00,60.7,55.0,30.20,South,174,0.0,2.0,80,0.00,,,0.00,weatherlink.com 1.10,2013-04-17 06:43:00,
2013-04-17 02:58:00,61.0,55.0,30.21,South,174,0.0,1.0,80,0.00,,,0.00,weatherlink.com 1.10,2013-04-17 06:58:00,
2013-04-17 03:13:00,61.0,55.0,30.21,South,173,0.0,2.0,80,0.00,,,0.00,weatherlink.com 1.10,2013-04-17 07:13:00,
2013-04-17 03:28:00,61.6,55.0,30.22,South,169,4.0,8.0,79,0.00,,,0.00,weatherlink.com 1.10,2013-04-17 07:28:00,
2013-04-17 03:43:00,61.8,55.0,30.22,South,169,1.0,7.0,78,0.00,,,0.00,weatherlink.com 1.10,2013-04-17 07:43:00,
2013-04-17 03:58:00,61.6,55.0,30.21,South,169,0.0,4.0,79,0.00,,,0.00,weatherlink.com 1.10,2013-04-17 07:58:00,
2013-04-17 04:13:00,60.9,55.0,30.21,South,169,0.0,4.0,80,0.00,,,0.00,weatherlink.com 1.10,2013-04-17 08:13:00,
2013-04-17 04:28:00,60.6,55.0,30.21,South,169,0.0,3.0,81,0.00,,,0.00,weatherlink.com 1.10,2013-04-17 08:28:00,
2013-04-17 04:43:00,60.5,55.0,30.20,South,169,1.0,7.0,81,0.00,,,0.00,weatherlink.com 1.10,2013-04-17 08:43:00,
2013-04-17 04:58:00,60.3,55.0,30.21,South,169,0.0,4.0,82,0.00,,,0.00,weatherlink.com 1.10,2013-04-17 08:58:00,
2013-04-17 05:13:00,60.4,55.0,30.21,South,169,2.0,5.0,82,0.00,,,0.00,weatherlink.com 1.10,2013-04-17 09:13:00,
2013-04-17 05:28:00,60.2,55.0,30.20,South,169,0.0,4.0,82,0.00,,,0.00,weatherlink.com 1.10,2013-04-17 09:28:00,
2013-04-17 05:43:00,59.7,55.0,30.22,South,169,0.0,2.0,83,0.00,,,0.00,weatherlink.com 1.10,2013-04-17 09:43:00,
2013-04-17 05:58:00,59.9,55.0,30.22,South,169,0.0,2.0,83,0.00,,,0.00,weatherlink.com 1.10,2013-04-17 09:58:00,
2013-04-17 06:13:00,58.2,54.0,30.23,South,177,4.0,7.0,86,0.00,,,0.00,weatherlink.com 1.10,2013-04-17 10:13:00,
2013-04-17 06:28:00,57.8,54.0,30.23,South,177,0.0,3.0,87,0.00,,,0.00,weatherlink.com 1.10,2013-04-17 10:28:00,
2013-04-17 06:43:00,58.2,54.0,30.24,South,177,0.0,2.0,86,0.00,,,0.00,weatherlink.com 1.10,2013-04-17 10:43:00,
2013-04-17 06:58:00,59.1,54.0,30.23,South,177,0.0,0.0,84,0.00,,,0.00,weatherlink.com 1.10,2013-04-17 10:58:00,
2013-04-17 07:13:00,59.6,55.0,30.24,South,177,0.0,0.0,84,0.00,,,0.00,weatherlink.com 1.10,2013-04-17 11:13:00,
2013-04-17 07:28:00,58.8,55.0,30.25,South,177,0.0,0.0,86,0.00,,,0.00,weatherlink.com 1.10,2013-04-17 11:28:00,
2013-04-17 07:43:00,58.0,55.0,30.26,South,177,1.0,4.0,89,0.00,,,0.00,weatherlink.com 1.10,2013-04-17 11:43:00,
2013-04-17 07:58:00,57.4,55.0,30.25,South,177,0.0,1.0,92,0.21,,,0.21,weatherlink.com 1.10,2013-04-17 11:58:00,
2013-04-17 08:13:00,57.5,55.0,30.24,South,178,1.0,2.0,92,0.24,,,0.24,weatherlink.com 1.10,2013-04-17 12:13:00,
2013-04-17 08:28:00,57.4,56.0,30.24,South,176,2.0,4.0,94,0.25,,,0.25,weatherlink.com 1.10,2013-04-17 12:28:00,
2013-04-17 08:43:00,58.2,56.0,30.23,South,173,4.0,5.0,91,0.25,,,0.25,weatherlink.com 1.10,2013-04-17 12:43:00,
2013-04-17 08:58:00,59.9,57.0,30.23,South,173,3.0,4.0,89,0.04,,,0.25,weatherlink.com 1.10,2013-04-17 12:58:00,
2013-04-17 09:13:00,62.0,58.0,30.23,South,173,1.0,4.0,87,0.01,,,0.25,weatherlink.com 1.10,2013-04-17 13:13:00,
2013-04-17 09:28:00,63.7,58.0,30.23,South,173,1.0,4.0,82,0.00,,,0.25,weatherlink.com 1.10,2013-04-17 13:28:00,
2013-04-17 09:43:00,64.1,57.0,30.23,South,173,1.0,4.0,79,0.00,,,0.25,weatherlink.com 1.10,2013-04-17 13:43:00,
2013-04-17 09:59:00,66.4,57.0,30.23,South,173,1.0,5.0,72,0.00,,,0.25,weatherlink.com 1.10,2013-04-17 13:59:00,
2013-04-17 10:14:00,67.7,58.0,30.23,South,173,0.0,4.0,71,0.00,,,0.25,weatherlink.com 1.10,2013-04-17 14:14:00,
2013-04-17 10:29:00,70.3,60.0,30.23,South,173,1.0,1.0,69,0.00,,,0.25,weatherlink.com 1.10,2013-04-17 14:29:00,
2013-04-17 10:44:00,69.5,58.0,30.23,South,173,0.0,2.0,66,0.00,,,0.25,weatherlink.com 1.10,2013-04-17 14:44:00,
2013-04-17 10:59:00,68.9,57.0,30.23,South,173,0.0,2.0,67,0.00,,,0.25,weatherlink.com 1.10,2013-04-17 14:59:00,
2013-04-17 11:14:00,69.0,58.0,30.23,South,173,0.0,0.0,69,0.00,,,0.25,weatherlink.com 1.10,2013-04-17 15:14:00,
2013-04-17 11:29:00,67.9,60.0,30.24,South,174,3.0,6.0,76,0.00,,,0.25,weatherlink.com 1.10,2013-04-17 15:29:00,
2013-04-17 11:44:00,63.2,59.0,30.24,South,179,3.0,11.0,85,0.00,,,0.25,weatherlink.com 1.10,2013-04-17 15:44:00,
2013-04-17 11:59:00,63.2,59.0,30.24,South,179,0.0,4.0,85,0.00,,,0.25,weatherlink.com 1.10,2013-04-17 15:59:00,
2013-04-17 12:14:00,63.6,60.0,30.24,South,179,3.0,4.0,87,0.00,,,0.25,weatherlink.com 1.10,2013-04-17 16:14:00,
2013-04-17 12:29:00,64.3,59.0,30.24,South,179,2.0,4.0,82,0.00,,,0.25,weatherlink.com 1.10,2013-04-17 16:29:00,
2013-04-17 12:44:00,64.7,58.0,30.23,South,179,2.0,4.0,79,0.00,,,0.25,weatherlink.com 1.10,2013-04-17 16:44:00,
2013-04-17 12:59:00,64.3,58.0,30.22,South,180,3.0,6.0,79,0.00,,,0.25,weatherlink.com 1.10,2013-04-17 16:59:00,
2013-04-17 13:14:00,64.9,58.0,30.22,South,180,3.0,6.0,78,0.00,,,0.25,weatherlink.com 1.10,2013-04-17 17:14:00,
2013-04-17 13:29:00,65.3,58.0,30.22,South,180,3.0,4.0,78,0.00,,,0.25,weatherlink.com 1.10,2013-04-17 17:29:00,
2013-04-17 13:44:00,64.3,58.0,30.21,South,180,4.0,6.0,80,0.00,,,0.25,weatherlink.com 1.10,2013-04-17 17:44:00,
2013-04-17 13:59:00,63.9,59.0,30.22,South,180,2.0,5.0,83,0.00,,,0.25,weatherlink.com 1.10,2013-04-17 17:59:00,
2013-04-17 14:14:00,60.4,58.0,30.22,South,179,2.0,5.0,90,0.13,,,0.38,weatherlink.com 1.10,2013-04-17 18:14:00,
2013-04-17 14:29:00,61.3,59.0,30.22,South,179,2.0,4.0,93,0.15,,,0.40,weatherlink.com 1.10,2013-04-17 18:29:00,
2013-04-17 14:44:00,61.2,59.0,30.23,South,179,0.0,4.0,93,0.15,,,0.40,weatherlink.com 1.10,2013-04-17 18:44:00,
2013-04-17 14:59:00,60.1,57.0,30.22,South,178,3.0,4.0,90,0.16,,,0.41,weatherlink.com 1.10,2013-04-17 18:59:00,
2013-04-17 15:14:00,60.2,58.0,30.21,South,176,2.0,2.0,93,0.06,,,0.44,weatherlink.com 1.10,2013-04-17 19:14:00,
2013-04-17 15:29:00,61.2,58.0,30.21,South,176,0.0,1.0,89,0.04,,,0.44,weatherlink.com 1.10,2013-04-17 19:29:00,
2013-04-17 15:44:00,62.8,58.0,30.20,South,176,3.0,4.0,85,0.04,,,0.44,weatherlink.com 1.10,2013-04-17 19:44:00,
2013-04-17 15:59:00,63.3,59.0,30.19,South,176,1.0,4.0,86,0.03,,,0.44,weatherlink.com 1.10,2013-04-17 19:59:00,
2013-04-17 16:14:00,64.9,58.0,30.19,South,176,0.0,3.0,78,0.00,,,0.44,weatherlink.com 1.10,2013-04-17 20:14:00,
2013-04-17 16:44:00,67.9,60.0,30.18,South,176,0.0,4.0,75,0.00,,,0.44,weatherlink.com 1.10,2013-04-17 20:44:00,
2013-04-17 16:59:00,67.0,58.0,30.17,South,176,1.0,4.0,73,0.00,,,0.44,weatherlink.com 1.10,2013-04-17 20:59:00,
2013-04-17 17:14:00,66.6,59.0,30.16,South,176,2.0,4.0,77,0.00,,,0.44,weatherlink.com 1.10,2013-04-17 21:14:00,
2013-04-17 17:29:00,66.6,58.0,30.16,South,176,0.0,3.0,75,0.00,,,0.44,weatherlink.com 1.10,2013-04-17 21:29:00,
2013-04-17 17:44:00,65.9,58.0,30.16,South,176,0.0,3.0,75,0.00,,,0.44,weatherlink.com 1.10,2013-04-17 21:44:00,
2013-04-17 17:59:00,65.5,57.0,30.16,South,174,0.0,0.0,75,0.00,,,0.44,weatherlink.com 1.10,2013-04-17 21:59:00,
2013-04-17 18:14:00,65.4,59.0,30.16,South,174,0.0,0.0,80,0.00,,,0.44,weatherlink.com 1.10,2013-04-17 22:14:00,
2013-04-17 18:29:00,65.3,59.0,30.15,South,174,0.0,0.0,80,0.00,,,0.44,weatherlink.com 1.10,2013-04-17 22:29:00,
2013-04-17 18:44:00,65.0,59.0,30.15,South,174,0.0,0.0,80,0.00,,,0.44,weatherlink.com 1.10,2013-04-17 22:44:00,
2013-04-17 18:59:00,64.0,58.0,30.15,South,174,0.0,0.0,80,0.00,,,0.44,weatherlink.com 1.10,2013-04-17 22:59:00,
2013-04-17 19:14:00,63.0,57.0,30.15,South,174,0.0,0.0,81,0.00,,,0.44,weatherlink.com 1.10,2013-04-17 23:14:00,
2013-04-17 19:29:00,62.5,57.0,30.15,South,174,0.0,0.0,83,0.00,,,0.44,weatherlink.com 1.10,2013-04-17 23:29:00,
2013-04-17 19:44:00,62.0,57.0,30.15,South,174,0.0,0.0,84,0.00,,,0.44,weatherlink.com 1.10,2013-04-17 23:44:00,
2013-04-17 19:59:00,61.6,56.0,30.16,SSE,165,0.0,0.0,83,0.00,,,0.44,weatherlink.com 1.10,2013-04-17 23:59:00,
2013-04-17 20:14:00,61.8,55.0,30.16,South,169,0.0,0.0,78,0.00,,,0.44,weatherlink.com 1.10,2013-04-18 00:14:00,
2013-04-17 20:29:00,61.4,54.0,30.16,South,169,0.0,0.0,77,0.00,,,0.44,weatherlink.com 1.10,2013-04-18 00:29:00,
2013-04-17 20:44:00,61.1,55.0,30.17,South,169,0.0,0.0,79,0.00,,,0.44,weatherlink.com 1.10,2013-04-18 00:44:00,
2013-04-17 20:59:00,60.5,54.0,30.16,South,169,0.0,0.0,80,0.00,,,0.44,weatherlink.com 1.10,2013-04-18 00:59:00,
2013-04-17 21:14:00,60.8,54.0,30.17,SSE,167,0.0,0.0,78,0.00,,,0.44,weatherlink.com 1.10,2013-04-18 01:14:00,
2013-04-17 21:44:00,61.5,53.0,30.17,SSE,167,0.0,0.0,73,0.00,,,0.44,weatherlink.com 1.10,2013-04-18 01:44:00,
2013-04-17 21:59:00,61.6,52.0,30.17,SSE,167,0.0,0.0,72,0.00,,,0.44,weatherlink.com 1.10,2013-04-18 01:59:00,
2013-04-17 22:14:00,61.5,53.0,30.17,SSE,167,0.0,0.0,73,0.00,,,0.44,weatherlink.com 1.10,2013-04-18 02:14:00,
2013-04-17 22:29:00,61.1,53.0,30.16,SSE,167,0.0,0.0,74,0.00,,,0.44,weatherlink.com 1.10,2013-04-18 02:29:00,
2013-04-17 22:44:00,61.0,53.0,30.15,South,169,0.0,0.0,75,0.00,,,0.44,weatherlink.com 1.10,2013-04-18 02:44:00,
2013-04-17 22:59:00,60.9,53.0,30.15,SSE,167,0.0,0.0,75,0.00,,,0.44,weatherlink.com 1.10,2013-04-18 02:59:00,
2013-04-17 23:14:00,60.4,53.0,30.15,SSE,167,0.0,0.0,76,0.00,,,0.44,weatherlink.com 1.10,2013-04-18 03:14:00,
2013-04-17 23:29:00,60.6,53.0,30.14,SSE,167,0.0,0.0,75,0.00,,,0.44,weatherlink.com 1.10,2013-04-18 03:29:00,
2013-04-17 23:45:00,60.5,53.0,30.14,SSE,167,0.0,0.0,76,0.00,,,0.44,weatherlink.com 1.10,2013-04-18 03:45:00,